[[{"header":{"parameterUnit":"m.s-1","parameterCategory":1,"la1":30.2991,"la2":30.254,"lo1":-89.0895,"lo2":-89.0444,"dy":0.0017,"dx":0.0017,"nx":28,"ny":28,"refTime":"2023-07-26T03:00:00:Z","depth":0,"parameterNumber":2,"parameterNumberName":"U-component_of_WINDS"},"data":[0,0,0,0,0,0,0,0,0,0,0,0,0,0,0,0,0,0,0,0,0,0,0,0,0,0,0,0,0,0,0,0,0,0,0,0,0,0,0,0,0,0,0,0,0,0,0,0,0,0,0,0,0,0,0,0,0,0,0.0832,0.0834,0,0.1044,0.1046,0.1048,0.1118,0.1117,0.1116,0.1115,0.1336,0.1342,0.1349,0,0,0,0,0,0,0,0,0,0,0,0,0,0.0487,0.0493,0.0831,0.0834,0.0837,0.1043,0.1046,0.1049,0.1118,0.1117,0.1116,0.1114,0.1333,0.1341,0.1349,0,0,0,0,0,0,0,0,0,0,0,0,0,0.0662,0.0495,0.0831,0.0896,0.0904,0.1043,0.1046,0.105,0.1118,0.1117,0.1115,0.1114,0.1331,0.134,0.135,0.1441,0,0,0.1381,0.1386,0,0,0,0,0,0,0,0,0.0652,0.0674,0.0884,0.0892,0.0901,0.1053,0.1006,0.1181,0.1118,0.1037,0.1115,0.1113,0.1243,0.126,0.1303,0.1452,0.1461,0.1382,0.1388,0.1393,0.1396,0,0,0,0,0,0,0,0.064,0.0666,0.0916,0.0887,0.0897,0.0915,0.0938,0.1039,0.1145,0.1044,0.1049,0.1073,0.1247,0.1293,0.1309,0.1464,0.1382,0.1391,0.1397,0.1401,0.1696,0.1697,0,0,0,0,0,0,0.0616,0.0655,0.0909,0.0922,0.077,0.0922,0.0948,0.1005,0.1144,0.1164,0.1074,0.1076,0.1277,0.1297,0.1317,0.1431,0.1393,0.1402,0.1408,0.1694,0.1696,0.1698,0,0,0,0,0,0,0.0609,0.0638,0.09,0.079,0.0825,0.093,0.0993,0.101,0.1056,0.1167,0.1187,0.1102,0.1276,0.1303,0.1409,0.1439,0.1407,0.1416,0.1692,0.1694,0.1697,0.166,0,0,0,0,0,0,0.0598,0.0635,0.0671,0.079,0.083,0.0989,0.0995,0.1016,0.1073,0.1077,0.1198,0.1217,0.1277,0.1393,0.1419,0.1453,0.1424,0.169,0.1693,0.1696,0.1659,0.1661,0.1663,0,0,0,0,0,0.0586,0.0653,0.0672,0.0702,0.0877,0.099,0.1013,0.108,0.1075,0.1112,0.1183,0.1213,0.1432,0.1404,0.1433,0.147,0.1688,0.1692,0.1696,0.1658,0.1661,0.1663,0,0,0,0,0,0,0.0536,0.067,0.0693,0.0801,0.0883,0.1002,0.105,0.1081,0.1168,0.1168,0.1248,0.1275,0.1375,0.1434,0.14,0.1564,0.1561,0.1571,0.1523,0.1526,0.1528,0.1512,0.1432,0,0,0,0,0,0.0538,0.0618,0.0731,0.0815,0.0855,0.0945,0.0997,0.1041,0.113,0.1166,0.1245,0.1331,0.1419,0.1476,0.1563,0.1667,0.1694,0.1707,0.1709,0.171,0.1718,0.1776,0.1782,0.1711,0.1711,0.1711,0,0,0.0542,0.0625,0.0671,0.0807,0.0876,0.0957,0.0974,0.106,0.1121,0.118,0.1284,0.1345,0.1446,0.1551,0.1602,0.1603,0.1743,0.1715,0.1715,0.1723,0.178,0.1787,0.1793,0.1713,0.1713,0.1712,0,0,0.0591,0.0662,0.0739,0.0807,0.0911,0.097,0.0988,0.1101,0.1143,0.1249,0.1294,0.1367,0.1518,0.1588,0.1643,0.1714,0.1745,0.174,0.1751,0.1806,0.1812,0.1817,0.1841,0.1849,0.1748,0.1748,0.1748,0,0.0584,0.0707,0.0775,0.0858,0.0916,0.097,0.1048,0.1111,0.1239,0.1278,0.1277,0.1465,0.1537,0.1658,0.1675,0.1718,0.1741,0.1728,0.1805,0.1811,0.1817,0.1842,0.1851,0.1746,0.1747,0.1747,0.1747,0,0.0692,0.0777,0.0827,0.0946,0.101,0.109,0.1169,0.1226,0.1263,0.1322,0.1428,0.1516,0.1621,0.1653,0.1691,0.1779,0.1776,0.1789,0.1788,0.1822,0.1846,0.1856,0.1745,0.1745,0.1745,0.1746,0,0,0.0719,0.0871,0.0889,0.0942,0.1059,0.1126,0.1208,0.1309,0.1355,0.144,0.1511,0.1635,0.1646,0.1709,0.1755,0.1804,0.1853,0.1811,0.1815,0.1815,0.1953,0.1942,0.1952,0.1873,0.1875,0.1877,0.1944,0,0.0782,0.093,0.0992,0.1111,0.1189,0.124,0.1311,0.139,0.1446,0.1521,0.1584,0.167,0.168,0.1717,0.1767,0.1836,0.1882,0.1832,0.194,0.1943,0.1912,0.1965,0.1955,0.2014,0.1954,0.1956,0.1957,0,0.0877,0.096,0.1086,0.1191,0.1226,0.1289,0.1385,0.1456,0.1546,0.1584,0.1651,0.1694,0.1782,0.1773,0.1894,0.1859,0.1906,0.1946,0.195,0.1963,0.1952,0.1979,0.2035,0.2043,0.1973,0.1972,0.197,0,0.0882,0.1026,0.1119,0.1164,0.1289,0.1331,0.1385,0.1474,0.153,0.1614,0.1651,0.1744,0.1795,0.1867,0.1934,0.1922,0.2048,0.2046,0.2081,0.2079,0.2107,0.2104,0.217,0.2137,0.2136,0.2136,0.2136,0,0.0947,0.1022,0.1123,0.118,0.1265,0.1335,0.1418,0.1475,0.1553,0.1623,0.1673,0.1737,0.1822,0.1896,0.1949,0.2041,0.2064,0.2096,0.211,0.2092,0.2088,0.2125,0.2122,0.2139,0.2138,0.2138,0.2137,0,0.0968,0.1038,0.1143,0.1252,0.1281,0.1338,0.1431,0.1489,0.1546,0.1633,0.1658,0.1748,0.1838,0.1912,0.2031,0.2066,0.2161,0.2177,0.213,0.2137,0.2169,0.2164,0.2261,0.2277,0.2232,0.2233,0.2233,0,0.1004,0.1063,0.1176,0.1226,0.1278,0.1358,0.1414,0.1484,0.1541,0.1646,0.1691,0.1784,0.1863,0.2005,0.2081,0.2172,0.219,0.2217,0.2204,0.2183,0.2189,0.2185,0.219,0.2218,0.2219,0.2219,0.2219,0,0.1061,0.1093,0.1172,0.1262,0.1327,0.1402,0.1478,0.1516,0.16,0.1661,0.1753,0.1813,0.1933,0.2025,0.2123,0.2179,0.2213,0.2222,0.2235,0.2218,0.2188,0.2204,0.2134,0.222,0.222,0.222,0.222,0.222,0.1092,0.1145,0.1232,0.1318,0.1381,0.1451,0.1509,0.1572,0.165,0.1752,0.1789,0.1882,0.1969,0.2104,0.216,0.2235,0.2238,0.2257,0.2262,0.2266,0.2263,0.2175,0.2253,0.2253,0.2253,0.2253,0.2253,0,0.115,0.1208,0.1286,0.139,0.1456,0.148,0.1565,0.1619,0.1701,0.1778,0.1853,0.1958,0.2046,0.2128,0.2221,0.2264,0.2282,0.2286,0.2284,0.2296,0.2255,0.2234,0.227,0.227,0.227,0.227,0.227,0.227,0.1189,0.128,0.1321,0.1444,0.1502,0.1593,0.1639,0.1702,0.1764,0.1878,0.1951,0.2003,0.2082,0.218,0.2262,0.2284,0.2316,0.2316,0.2341,0.2302,0.2299,0.2297,0.2277,0.2322,0.2322,0.2376,0.2377,0.2377]},{"header":{"parameterUnit":"m.s-1","parameterCategory":1,"la1":30.2991,"la2":30.254,"lo1":-89.0895,"lo2":-89.0444,"dy":0.0017,"dx":0.0017,"nx":28,"ny":28,"refTime":"2023-07-26T03:00:00:Z","depth":0,"parameterNumber":3,"parameterNumberName":"V-component_of_WINDS"},"data":[0,0,0,0,0,0,0,0,0,0,0,0,0,0,0,0,0,0,0,0,0,0,0,0,0,0,0,0,0,0,0,0,0,0,0,0,0,0,0,0,0,0,0,0,0,0,0,0,0,0,0,0,0,0,0,0,0,0,3.1042,3.1041,0,3.0959,3.0959,3.0958,3.0961,3.0963,3.0964,3.0965,3.087,3.0867,3.0863,0,0,0,0,0,0,0,0,0,0,0,0,0,3.1194,3.1192,3.1042,3.1041,3.104,3.096,3.0958,3.0957,3.0961,3.0963,3.0964,3.0965,3.0872,3.0867,3.0863,0,0,0,0,0,0,0,0,0,0,0,0,0,3.1121,3.1191,3.1042,3.1033,3.1031,3.096,3.0958,3.0957,3.0961,3.0963,3.0964,3.0966,3.0873,3.0868,3.0862,3.0792,0,0,3.0846,3.0843,0,0,0,0,0,0,0,0,3.1125,3.1116,3.1035,3.1033,3.1031,3.0973,3.0978,3.0901,3.096,3.0987,3.0965,3.0967,3.0902,3.0895,3.0875,3.0788,3.0784,3.0845,3.0842,3.0839,3.0838,0,0,0,0,0,0,0,3.1131,3.1119,3.1009,3.1034,3.1031,3.1029,3.1021,3.0963,3.0935,3.0985,3.0985,3.0976,3.0901,3.088,3.0873,3.0783,3.0845,3.084,3.0837,3.0835,3.0634,3.0632,0,0,0,0,0,0,3.1139,3.1123,3.1012,3.1007,3.1084,3.1025,3.1016,3.0989,3.0936,3.093,3.0974,3.0976,3.0888,3.0879,3.0869,3.0784,3.0839,3.0834,3.0831,3.0636,3.0634,3.0632,0,0,0,0,0,0,3.1142,3.1129,3.1015,3.1065,3.1051,3.1021,3.0991,3.0987,3.0966,3.0928,3.0922,3.0958,3.089,3.0877,3.0812,3.0781,3.0832,3.0827,3.0639,3.0635,3.0633,3.0613,0,0,0,0,0,0,3.1147,3.113,3.1105,3.1065,3.1048,3.0962,3.0989,3.0984,3.0957,3.0959,3.0911,3.0905,3.089,3.082,3.0807,3.0774,3.0823,3.0641,3.0637,3.0634,3.0616,3.0609,3.0604,0,0,0,0,0,3.1152,3.1101,3.1104,3.1091,3.1017,3.096,3.095,3.0937,3.0955,3.0928,3.0904,3.0906,3.0787,3.0814,3.0798,3.0764,3.0643,3.0638,3.0634,3.0619,3.0611,3.0604,0,0,0,0,0,0,3.1135,3.1095,3.1098,3.1033,3.1001,3.0961,3.0927,3.0929,3.0887,3.089,3.0873,3.0862,3.0797,3.0774,3.0804,3.0693,3.0717,3.0709,3.0711,3.0703,3.0697,3.0703,3.0818,0,0,0,0,0,3.1124,3.1085,3.1051,3.0996,3.098,3.0957,3.0931,3.0925,3.0888,3.0873,3.0845,3.0807,3.0761,3.0731,3.0686,3.0613,3.0602,3.0582,3.0576,3.0571,3.0563,3.0523,3.0513,3.0616,3.0616,3.0616,0,0,3.11,3.1073,3.1049,3.0992,3.0966,3.0923,3.0945,3.0898,3.0865,3.0865,3.0803,3.0781,3.0737,3.0669,3.0637,3.0647,3.0533,3.0565,3.0561,3.0556,3.0517,3.0507,3.0499,3.0613,3.0614,3.0614,0,0,3.1034,3.1011,3.0963,3.0937,3.0899,3.0884,3.0873,3.0833,3.082,3.0758,3.0758,3.0717,3.0638,3.0607,3.0581,3.0506,3.0506,3.0491,3.0458,3.0419,3.0411,3.0403,3.0375,3.0366,3.0485,3.0485,3.0485,0,3.1008,3.0946,3.0937,3.0891,3.0865,3.0868,3.0818,3.0792,3.074,3.0721,3.0735,3.0637,3.0607,3.0531,3.0513,3.0492,3.0477,3.0496,3.0413,3.0406,3.0399,3.0372,3.0361,3.0483,3.0483,3.0483,3.0484,0,3.0915,3.0872,3.0838,3.0791,3.0762,3.0714,3.0695,3.0666,3.0662,3.0645,3.0581,3.0547,3.0496,3.0477,3.0471,3.04,3.0408,3.0418,3.0441,3.0387,3.0362,3.0351,3.0481,3.0481,3.0482,3.0482,0,0,3.0834,3.0786,3.0773,3.0752,3.0711,3.0676,3.0627,3.0581,3.0555,3.0519,3.0476,3.0411,3.042,3.0391,3.0381,3.0347,3.0288,3.036,3.0359,3.0347,3.0207,3.0199,3.0188,3.0289,3.0287,3.0286,3.021,0,3.0763,3.0681,3.0673,3.0597,3.0557,3.056,3.0517,3.0485,3.0468,3.0429,3.0409,3.0362,3.0379,3.0361,3.0327,3.0303,3.026,3.0308,3.0246,3.0244,3.0256,3.0174,3.0166,3.0096,3.02,3.0198,3.0197,0,3.0669,3.0635,3.0557,3.0522,3.0505,3.0467,3.0424,3.0387,3.0351,3.0341,3.0309,3.0305,3.0252,3.0279,3.0205,3.0238,3.0213,3.0197,3.0194,3.0186,3.0217,3.0163,3.0074,3.0063,3.0181,3.0183,3.0184,0,3.0617,3.055,3.0495,3.0477,3.0436,3.0409,3.039,3.0356,3.0329,3.029,3.0272,3.0227,3.0201,3.0165,3.0147,3.0169,3.0074,3.0099,3.0062,3.0062,3.004,3.0041,2.9944,3.0026,3.0026,3.0026,3.0026,0,3.0538,3.049,3.0472,3.0438,3.0383,3.0373,3.0319,3.03,3.027,3.023,3.0229,3.0191,3.0171,3.0129,3.0115,3.0055,3.0044,3.0032,3.0029,3.0032,3.0033,3.0013,3.0017,3.0023,3.0024,3.0024,3.0025,0,3.0469,3.0456,3.0396,3.0363,3.0353,3.0314,3.0284,3.025,3.0235,3.0184,3.0172,3.0146,3.0097,3.0077,3.0015,3.0006,2.9937,2.9938,2.995,2.9949,2.9912,2.9915,2.9797,2.9781,2.9875,2.9874,2.9873,0,3.0419,3.0383,3.0347,3.0323,3.0304,3.0263,3.0237,3.0225,3.0196,3.0154,3.0124,3.0076,3.0037,2.9959,2.9932,2.9885,2.9884,2.9846,2.9876,2.9881,2.9882,2.9884,2.988,2.9839,2.9839,2.9838,2.9837,0,3.0332,3.0327,3.0291,3.0252,3.0222,3.0189,3.0158,3.0137,3.012,3.0088,3.004,3.001,2.995,2.9901,2.9854,2.983,2.983,2.9828,2.9817,2.9819,2.9827,2.9821,2.9934,2.983,2.9831,2.9832,2.9832,2.9832,3.027,3.0238,3.0209,3.0168,3.0144,3.0115,3.0082,3.0063,3.0025,2.9977,2.9972,2.992,2.9884,2.9821,2.9796,2.9753,2.9762,2.9746,2.9742,2.9737,2.9735,2.9836,2.9744,2.9744,2.9745,2.9745,2.9745,0,3.0181,3.0163,3.0126,3.0085,3.0052,3.0059,3.0025,2.9996,2.9952,2.9921,2.9884,2.9828,2.9782,2.9753,2.9706,2.9677,2.9676,2.9665,2.9666,2.9661,2.9729,2.9744,2.9667,2.9667,2.9667,2.9667,2.9667,2.9667,3.0131,3.0078,3.007,3.0004,2.9985,2.9938,2.9918,2.989,2.9865,2.9805,2.9768,2.9751,2.972,2.9671,2.9628,2.962,2.9602,2.959,2.9583,2.9648,2.9656,2.9663,2.9677,2.9587,2.9587,2.9518,2.9517,2.9516]}]]